User: anonymous   Login
Location: Ferma
(41.9500°N, 44.5167°E)
Time: 18:05:51
(UTC+00:00)
Language:

Iridium 4 Rocket - Orbit

View from above orbital plane
View from above orbital plane
View from above satellite
View from above satellite

Ground track
Ground track

The orbit data is extracted from the following two-line orbital elements,

1 24797U 97020F   22019.16253120  .00000357  00000-0  69499-4 0  9997
2 24797  86.8947  99.1778 0226512 124.5104 297.3079 14.44329642299960
Epoch (UTC): 19 January 2022 03:54:02
Eccentricity: 0.0226512
inclination: 86.8947°
perigee height: 583 km
apogee height: 905 km
right ascension of ascending node: 99.1778°
argument of perigee: 124.5104°
revolutions per day: 14.44329642
mean anomaly at epoch: 297.3079°
orbit number at epoch: 29996

The dashed part of the orbit path shows where the satellite is in the earth's shadow,  

DLR